Weather History for KBKE - September, 2013

Change the Weather History Date:

Thursday, September 19, 2013

  Actual Average Record
Temperature  
Mean Temperature 48 °F 54 °F  
Max Temperature 70 °F 73 °F 90 °F (1979)
Min Temperature 26 °F 35 °F 22 °F (1965)
Degree Days  
Heating Degree Days 17 11  
Month to date heating degree days 68 148  
Since 1 July heating degree days 100 299  
Cooling Degree Days 0 0  
Month to date cooling degree days 28 7  
Year to date cooling degree days 258 167  
Moisture  
Dew Point 31 °F    
Average Humidity 64    
Maximum Humidity 100    
Minimum Humidity 27    
Precipitation  
Precipitation 0.00 in 0.02 in 0.70 in (1982)
Month to date precipitation 0.72 0.37  
Year to date precipitation 6.87 7.44  
Sea Level Pressure  
Sea Level Pressure 30.13 in    
Wind  
Wind Speed 7 mph (East)    
Max Wind Speed 21 mph    
Max Gust Speed 30 mph    
Visibility 7 miles    
Events Fog    
T = Trace of Precipitation, MM = Missing Value Source: NWS Daily Summary

Daily Weather History Graph

Daily Weather History Graph

Search for Another Location

Airport or City:

Trip Planner

Search our weather history database for the weather conditions in past years. The results will help you decide how hot, cold, wet, or windy it might be!

Date:

Astronomy

Sep. 19, 2013 Rise Set
Actual Time 6:35 AM PDT 6:53 PM PDT
Civil Twilight 6:05 AM PDT 7:23 PM PDT
Nautical Twilight 5:31 AM PDT 7:57 PM PDT
Astronomical Twilight 4:55 AM PDT 8:32 PM PDT
Moon 6:51 PM PDT (9/19) 6:52 AM PDT (9/19)
Length of Visible Light 13h 17m
Length of Day
12h 18m
Full, 100% of the Moon is Illuminated
Sep 19
Full
Sep 26
Last Quarter
Oct 4
New
Oct 11
First Quarter
Oct 18
Full

Hourly Weather History & Observations

Time (PDT) Temp. Windchill Dew Point Humidity Pressure Visibility Wind Dir Wind Speed Gust Speed Precip Events Conditions
12:53 AM 34.0 °F - 33.1 °F 96% 30.17 in 10.0 mi Calm Calm - N/A   Clear
1:53 AM 34.0 °F - 33.1 °F 96% 30.17 in 10.0 mi Calm Calm - N/A   Clear
2:53 AM 33.1 °F - 32.0 °F 96% 30.16 in 10.0 mi Calm Calm - N/A   Clear
3:48 AM 30.2 °F 26.7 °F 28.4 °F 93% 30.15 in 3.0 mi NNW 3.5 mph - N/A   Partly Cloudy
3:53 AM 30.0 °F 26.5 °F 30.0 °F 100% 30.16 in 7.0 mi NW 3.5 mph - N/A   Partly Cloudy
4:53 AM 32.0 °F - 30.9 °F 96% 30.17 in 10.0 mi Calm Calm - N/A   Clear
5:33 AM 28.4 °F - 28.4 °F 100% 30.15 in 2.0 mi Calm Calm - N/A   Clear
5:38 AM 28.4 °F - 28.4 °F 100% 30.15 in 0.8 mi Calm Calm - N/A   Mist
5:53 AM 28.9 °F - 28.0 °F 96% 30.18 in 0.8 mi Calm Calm - N/A   Mist
6:00 AM 28.4 °F - 28.4 °F 100% 30.16 in 1.0 mi Calm Calm - N/A   Mist
6:16 AM 28.4 °F 24.6 °F 26.6 °F 93% 30.16 in 0.5 mi North 3.5 mph - N/A Fog Light Freezing Fog
6:38 AM 26.6 °F - 26.6 °F 100% 30.17 in 0.2 mi Calm Calm - N/A Fog Light Freezing Fog
6:53 AM 28.0 °F - 28.0 °F 100% 30.22 in 0.5 mi Calm Calm - N/A Fog Light Freezing Fog
7:01 AM 28.4 °F - 28.4 °F 100% 30.17 in 0.2 mi Calm Calm - N/A Fog Light Freezing Fog
7:06 AM 28.4 °F - 28.4 °F 100% 30.17 in 0.5 mi Calm Calm - N/A Fog Light Freezing Fog
7:19 AM 30.2 °F - 30.2 °F 100% 30.18 in 2.5 mi Calm Calm - N/A   Clear
7:26 AM 30.2 °F - 30.2 °F 100% 30.18 in 10.0 mi Calm Calm - N/A   Clear
7:53 AM 34.0 °F - 34.0 °F 100% 30.22 in 10.0 mi Calm Calm - N/A   Clear
8:53 AM 44.1 °F - 39.0 °F 82% 30.20 in 10.0 mi Calm Calm - N/A   Clear
9:53 AM 54.0 °F - 39.0 °F 57% 30.18 in 10.0 mi NE 3.5 mph - N/A   Clear
10:53 AM 61.0 °F - 37.0 °F 41% 30.16 in 10.0 mi East 6.9 mph - N/A   Clear
11:53 AM 66.9 °F - 33.1 °F 28% 30.13 in 10.0 mi SSE 11.5 mph 19.6 mph N/A   Clear
12:53 PM 66.9 °F - 33.1 °F 28% 30.12 in 10.0 mi ESE 6.9 mph 17.3 mph N/A   Clear
1:53 PM 69.1 °F - 35.1 °F 29% 30.09 in 10.0 mi ESE 13.8 mph 19.6 mph N/A   Clear
2:53 PM 68.0 °F - 35.1 °F 30% 30.08 in 10.0 mi East 17.3 mph 24.2 mph N/A   Clear
3:53 PM 68.0 °F - 34.0 °F 28% 30.06 in 10.0 mi East 15.0 mph 23.0 mph N/A   Clear
4:53 PM 66.9 °F - 33.1 °F 28% 30.04 in 10.0 mi East 15.0 mph - N/A   Clear
5:53 PM 64.0 °F - 30.9 °F 29% 30.03 in 10.0 mi ESE 17.3 mph - N/A   Clear
6:53 PM 57.9 °F - 30.0 °F 35% 30.05 in 10.0 mi East 11.5 mph - N/A   Clear
7:53 PM 51.1 °F - 30.0 °F 44% 30.05 in 10.0 mi East 10.4 mph - N/A   Clear
8:53 PM 48.9 °F - 32.0 °F 52% 30.03 in 10.0 mi East 4.6 mph - N/A   Clear
9:53 PM 46.9 °F - 32.0 °F 56% 30.01 in 10.0 mi SSE 4.6 mph - N/A   Clear
10:53 PM 46.0 °F 42.5 °F 30.9 °F 56% 29.99 in 10.0 mi SE 6.9 mph - N/A   Clear
11:53 PM 43.0 °F 38.8 °F 30.9 °F 62% 29.99 in 10.0 mi SSE 6.9 mph - N/A   Clear